Stations météo

réclame
Mon MeteoGroup
Dax, France (7603): Température de l'air & dewpoint: 12.06.2018 13:00:00 - 18.06.2018 13:00:00 (CEST)Dax, France (7603): Température de l'air 5cm: 12.06.2018 13:00:00 - 18.06.2018 13:00:00 (CEST)Dax, France (7603): Température de l'air -20cm & Température de l'air -100cm: 12.06.2018 13:00:00 - 18.06.2018 13:00:00 (CEST)Dax, France (7603): Vitesse du vent & gusts: 12.06.2018 13:00:00 - 18.06.2018 13:00:00 (CEST)Dax, France (7603): Direction du vent: 12.06.2018 13:00:00 - 18.06.2018 13:00:00 (CEST)Dax, France (7603): reduced air pressure: 12.06.2018 13:00:00 - 18.06.2018 13:00:00 (CEST)Dax, France (7603): visibility: 12.06.2018 13:00:00 - 18.06.2018 13:00:00 (CEST)Dax, France (7603): Ensoleillement: 12.06.2018 13:00:00 - 18.06.2018 13:00:00 (CEST)Dax, France (7603): Quantités de précipitations: 12.06.2018 13:00:00 - 18.06.2018 13:00:00 (CEST)
Date & Time tt [°C] td [°C] tt 5cm [°C] tt -20cm [°C] tt -100cm [°C] ff [km/h] ff [knt] fx [km/h] fx [knt] dd ppp [hPa] vv [km] sd [min] rr [mm]
18.06.2018 13:00:00 18,7 15,9 19,6 19,8 18,4 10 5 18 10 WSW 1026,8 6 6 0,0
18.06.2018 12:00:00 19,0 16,2 19,1 19,8 18,4 9 5 16 9 WSW 1026,9 8 0 0,0
18.06.2018 11:00:00 18,1 15,2 17,8 19,8 18,4 8 4 15 8 SSW 1027,1 6 0 0,0
18.06.2018 10:00:00 16,6 14,6 16,5 19,9 18,4 5 3 12 7 SSW 1027,2 5 0 0,0
18.06.2018 09:00:00 16,1 14,1 16,1 19,9 18,4 6 3 10 5 S 1027,0 6 0 0,0
18.06.2018 08:00:00 15,2 13,7 15,0 20,0 18,4 6 3 12 6 S 1026,6 6 0 0,0
18.06.2018 07:00:00 14,9 13,6 14,5 20,0 18,4 5 3 9 5 S 1026,4 6 0 0,0
18.06.2018 06:00:00 14,8 13,7 14,5 20,1 18,4 3 2 9 5 S 1026,2 - 0 0,0
18.06.2018 05:00:00 14,6 13,5 13,8 20,3 18,4 4 2 8 5 S 1026,1 - 0 0,0
18.06.2018 04:00:00 13,8 13,0 13,1 20,4 18,4 8 4 10 6 S 1026,1 - 0 0,0
18.06.2018 03:00:00 13,8 12,9 12,9 20,5 18,4 3 2 5 3 SSW 1026,3 - 0 0,0
18.06.2018 02:00:00 13,7 12,4 13,0 20,7 18,4 0 0 6 3 N 1026,6 - 0 0,0
18.06.2018 01:00:00 14,3 12,8 13,3 20,8 18,4 3 2 8 4 S 1026,6 - 0 0,0
18.06.2018 00:00:00 14,8 12,3 13,6 20,9 18,4 5 3 7 4 S 1026,5 - 0 0,0
17.06.2018 23:00:00 15,7 12,1 15,1 21,0 18,4 4 2 10 5 W 1026,4 - 0 0,0
17.06.2018 22:00:00 16,4 12,0 15,5 21,0 18,3 4 2 13 7 W 1025,9 - 6 0,0
17.06.2018 21:00:00 18,2 11,5 18,1 21,0 18,4 6 4 21 11 WNW 1025,7 - 52 0,0
17.06.2018 20:00:00 19,7 12,2 20,5 20,9 18,3 10 5 24 13 WNW 1025,5 - 55 0,0
17.06.2018 19:00:00 20,9 12,3 21,3 - 18,4 14 8 28 15 W 1025,2 - 46 0,0
17.06.2018 18:00:00 21,5 12,3 22,4 - 18,3 15 8 27 14 W 1024,8 - 46 0,0
17.06.2018 17:00:00 21,8 13,4 22,1 20,4 18,4 13 7 27 15 WNW 1024,7 - 37 0,0
17.06.2018 16:00:00 20,9 12,8 21,8 20,2 18,4 13 7 31 17 WNW 1024,8 - 34 0,0
17.06.2018 15:00:00 21,1 13,3 21,8 20,0 18,3 16 8 28 15 W 1024,7 - 21 0,0
17.06.2018 14:00:00 20,4 13,6 21,2 - 18,3 13 7 26 14 W 1024,7 - 14 0,0
17.06.2018 13:00:00 19,7 13,6 20,7 - 18,3 8 4 21 12 SW 1024,7 - 8 0,0
17.06.2018 12:00:00 19,4 15,5 19,2 19,7 18,3 9 5 16 9 SSW 1024,6 - 42 0,0
17.06.2018 11:00:00 17,3 14,9 16,4 19,7 18,3 8 4 14 8 SSE 1024,8 - 12 0,0
17.06.2018 10:00:00 15,5 15,0 15,3 - 18,3 8 4 11 6 S 1025,1 - 0 0,6
17.06.2018 09:00:00 15,2 14,4 15,1 19,8 18,3 7 4 10 6 S 1024,6 - 0 0,0
17.06.2018 08:00:00 14,8 13,7 14,5 19,9 18,3 5 3 6 4 SE 1024,0 - 0 0,0
17.06.2018 07:00:00 14,4 13,4 14,0 20,0 18,3 3 2 7 4 SSE 1023,5 - 0 0,0
17.06.2018 06:00:00 14,1 13,5 13,4 20,1 18,3 6 3 9 5 S 1023,1 - 0 0,2
17.06.2018 05:00:00 13,7 13,2 12,0 20,3 18,3 4 2 6 4 S 1022,9 - 0 0,0
17.06.2018 04:00:00 13,5 12,9 12,2 20,4 18,3 2 1 5 3 S 1023,0 - 0 0,0
17.06.2018 03:00:00 13,9 13,3 12,6 20,6 18,3 4 2 6 3 S 1023,0 - 0 0,0
17.06.2018 02:00:00 14,3 13,2 12,9 20,7 18,3 0 0 5 3 N 1023,1 - 0 0,0
17.06.2018 01:00:00 15,1 13,0 13,8 20,8 18,3 2 1 5 3 SW 1023,3 - 0 0,0
17.06.2018 00:00:00 15,5 12,8 14,3 20,9 18,3 0 0 6 3 N 1023,2 - 0 0,0
16.06.2018 23:00:00 16,5 12,1 15,9 21,0 18,3 4 2 6 4 WSW 1023,0 - 0 0,0
16.06.2018 22:00:00 16,9 11,2 16,2 - 18,3 5 3 13 7 WNW 1022,3 - 18 0,0
16.06.2018 21:00:00 18,9 11,0 19,1 - 18,3 8 5 19 11 NW 1021,9 - 57 0,0
16.06.2018 20:00:00 19,2 10,5 19,7 21,0 18,3 12 7 27 15 NW 1021,5 - 47 0,0
16.06.2018 19:00:00 20,3 11,0 21,7 - 18,3 16 9 30 16 NW 1020,7 - 48 0,0
16.06.2018 18:00:00 21,2 11,5 21,5 - 18,3 12 6 26 14 WNW 1020,4 - 39 0,0
16.06.2018 17:00:00 20,5 10,9 21,8 - 18,3 13 7 27 14 NW 1020,4 - 39 0,0
16.06.2018 16:00:00 21,2 11,5 23,0 - 18,3 16 8 31 17 W 1020,5 - 53 0,0
16.06.2018 15:00:00 20,7 11,1 23,5 - 18,3 15 8 24 13 W 1020,7 - 37 0,0
16.06.2018 14:00:00 20,5 11,9 22,8 - 18,3 8 5 22 12 WNW 1020,7 - 29 0,0
16.06.2018 13:00:00 20,0 12,2 21,3 - 18,3 9 5 18 10 NW 1020,8 - 20 0,0
16.06.2018 12:00:00 18,9 11,9 18,3 - 18,3 9 5 16 9 NW 1020,6 - 17 0,0
16.06.2018 11:00:00 17,9 13,6 17,5 19,6 18,3 6 3 12 7 NNW 1020,6 - 0 0,0
16.06.2018 10:00:00 16,9 14,4 16,3 19,6 18,3 5 3 8 5 N 1020,2 - 0 0,0
16.06.2018 09:00:00 16,2 15,1 16,2 19,7 18,3 3 2 9 5 WNW 1019,7 - 0 0,0
16.06.2018 08:00:00 16,1 15,3 15,6 19,7 18,3 0 0 5 3 N 1019,2 - 0 0,0
16.06.2018 07:00:00 15,6 15,0 15,3 19,8 18,3 0 0 6 3 N 1019,1 - 0 0,0
16.06.2018 06:00:00 15,7 15,2 14,9 19,9 18,3 3 2 6 3 N 1018,9 - 0 0,0
16.06.2018 05:00:00 15,6 15,1 15,0 19,9 18,3 3 2 8 4 NNW 1019,0 - 0 0,0
16.06.2018 04:00:00 15,9 15,4 15,2 20,0 18,3 0 0 6 4 N 1019,1 - 0 0,0
16.06.2018 03:00:00 16,4 15,9 15,8 20,1 18,3 3 1 7 4 NW 1019,3 - 0 0,0
16.06.2018 02:00:00 16,4 15,8 16,1 20,1 18,3 0 0 5 3 N 1019,6 - 0 0,0
16.06.2018 01:00:00 16,4 15,9 16,1 20,2 18,3 3 2 5 3 SSE 1019,7 - 0 0,3
16.06.2018 00:00:00 16,5 15,9 16,2 20,3 18,3 0 0 15 8 N 1020,0 - 0 4,4
15.06.2018 23:00:00 17,4 16,8 17,1 20,3 18,3 5 3 9 5 W 1020,0 - 0 1,4
15.06.2018 22:00:00 17,8 16,7 17,2 20,3 18,3 4 2 9 5 W 1019,6 - 0 0,0
15.06.2018 21:00:00 18,1 16,3 18,0 - 18,3 6 3 13 7 WSW 1019,6 - 0 0,0
15.06.2018 20:00:00 18,1 16,3 17,8 20,3 18,3 8 5 16 9 WNW 1019,5 - 0 0,0
15.06.2018 19:00:00 18,9 16,1 19,1 20,2 18,3 10 6 15 8 WSW 1019,3 - 0 0,0
15.06.2018 18:00:00 18,8 15,5 19,5 20,1 18,3 10 5 18 10 WSW 1019,4 - 0 0,0
15.06.2018 17:00:00 18,5 15,7 18,8 - 18,3 11 6 22 12 W 1019,8 - 3 0,0
15.06.2018 16:00:00 19,2 14,7 20,0 - 18,3 9 5 18 10 WSW 1019,8 - 0 0,0
15.06.2018 15:00:00 18,5 14,2 19,5 - 18,3 10 6 18 10 WNW 1019,7 - 0 0,0
15.06.2018 14:00:00 19,4 14,0 20,4 - 18,3 9 5 18 10 W 1019,4 10 10 0,0
15.06.2018 13:00:00 19,2 14,2 19,3 - 18,3 12 6 19 10 WSW 1019,4 10 0 0,0
15.06.2018 12:00:00 18,9 14,6 20,3 - 18,3 12 7 20 11 SW 1019,4 8 8 0,0
15.06.2018 11:00:00 17,9 15,0 18,7 - 18,3 10 5 20 11 SW 1019,4 6 1 0,0
15.06.2018 10:00:00 17,0 15,0 17,2 - 18,3 7 4 13 7 WSW 1019,5 6 1 0,0
15.06.2018 09:00:00 15,5 14,5 14,5 - 18,3 5 3 9 5 SW 1019,4 6 1 0,0
15.06.2018 08:00:00 14,2 13,7 13,1 - 18,3 3 2 5 3 SSW 1019,2 4,0 0 0,0
15.06.2018 07:00:00 13,5 13,0 11,8 - 18,3 0 0 3 2 N 1018,9 3,0 0 0,0
15.06.2018 06:00:00 13,3 12,7 12,2 - 18,3 0 0 4 2 N 1018,8 - 0 0,0
15.06.2018 05:00:00 13,6 13,0 12,6 - 18,3 0 0 7 4 N 1018,8 - 0 0,0
15.06.2018 04:00:00 14,0 13,2 12,9 - 18,3 3 2 6 3 S 1019,1 - 0 0,0
15.06.2018 03:00:00 14,3 13,3 13,4 - 18,3 3 2 6 3 S 1019,4 - 0 0,0
15.06.2018 02:00:00 14,8 13,8 13,8 - 18,3 0 0 6 3 N 1020,0 - 0 0,0
15.06.2018 01:00:00 15,2 13,4 14,3 - 18,3 0 0 5 3 N 1019,9 - 0 0,0
15.06.2018 00:00:00 15,2 13,0 14,3 - 18,3 0 0 4 2 N 1020,1 - 0 0,0
14.06.2018 23:00:00 16,0 12,9 15,4 - 18,3 2 1 9 5 W 1020,2 - 0 0,0
14.06.2018 22:00:00 17,2 12,7 16,5 - 18,3 6 3 13 7 NW 1020,1 - 11 0,0
14.06.2018 21:00:00 19,4 12,2 19,8 - 18,3 8 4 21 11 WNW 1020,0 - 50 0,0
14.06.2018 20:00:00 19,8 12,5 20,2 - 18,3 11 6 23 12 WNW 1019,8 - 51 0,0
14.06.2018 19:00:00 20,7 12,7 21,1 - 18,3 14 7 25 14 WNW 1019,4 - 46 0,0
14.06.2018 18:00:00 20,1 12,6 21,0 - 18,3 13 7 27 15 WNW 1019,6 - 25 0,0
14.06.2018 17:00:00 20,8 13,2 22,5 - 18,3 16 9 30 16 WNW 1019,6 15 31 0,0
14.06.2018 16:00:00 21,2 13,4 22,3 20,2 18,2 11 6 27 15 WNW 1019,8 15 35 0,0
14.06.2018 15:00:00 20,7 13,4 21,8 20,1 18,3 13 7 29 15 NW 1020,0 15 32 0,0
14.06.2018 14:00:00 20,1 13,1 21,7 19,8 18,2 12 6 26 14 WNW 1020,4 10 27 0,0
14.06.2018 13:00:00 20,1 12,6 20,7 19,6 18,2 11 6 23 13 WNW 1020,5 10 11 0,0
14.06.2018 12:00:00 19,3 13,0 20,8 19,5 18,2 11 6 21 12 WNW 1020,3 10 27 0,0
14.06.2018 11:00:00 19,3 13,9 19,7 19,4 18,2 10 5 18 10 WNW 1020,2 10 22 0,0
14.06.2018 10:00:00 18,2 13,3 19,7 19,5 18,2 9 5 16 8 WNW 1020,2 9 55 0,0
14.06.2018 09:00:00 17,0 14,1 16,5 19,5 18,2 6 4 15 8 SW 1020,3 6 40 0,0
14.06.2018 08:00:00 15,3 14,5 14,6 19,5 18,2 6 3 9 5 SSW 1020,0 6 13 0,0
14.06.2018 07:00:00 14,5 13,4 13,4 19,6 18,3 3 2 7 4 W 1019,8 6 0 0,0
14.06.2018 06:00:00 15,1 13,5 14,5 - 18,3 3 2 11 6 W 1019,7 - 0 0,0
14.06.2018 05:00:00 15,7 13,9 15,5 - 18,3 6 3 12 7 WSW 1019,8 - 0 0,0
14.06.2018 04:00:00 15,7 14,2 15,4 19,9 18,3 6 3 13 7 WSW 1020,3 - 0 0,0
14.06.2018 03:00:00 15,5 14,4 14,6 - 18,2 6 3 10 5 SW 1020,6 - 0 0,0
14.06.2018 02:00:00 15,2 14,1 14,6 - 18,2 6 4 9 5 WSW 1021,0 - 0 0,0
14.06.2018 01:00:00 16,1 14,8 15,7 20,2 18,3 6 3 14 7 WSW 1021,1 - 0 0,0
14.06.2018 00:00:00 16,5 15,2 15,9 20,2 18,3 7 4 14 7 W 1021,3 - 0 0,0
13.06.2018 23:00:00 16,5 15,2 16,2 - 18,3 6 4 16 9 W 1021,0 - 0 0,0
13.06.2018 22:00:00 17,0 14,8 16,6 - 18,2 8 5 22 12 W 1020,4 - 18 0,0
13.06.2018 21:00:00 18,3 14,8 18,3 20,3 18,3 11 6 29 15 W 1020,4 - 53 0,0
13.06.2018 20:00:00 19,2 14,5 20,9 - 18,3 15 8 35 19 WNW 1020,0 - 60 0,0
13.06.2018 19:00:00 19,3 15,2 19,7 - 18,2 15 8 35 19 WNW 1019,8 - 16 0,0
13.06.2018 18:00:00 20,0 15,6 20,5 - 18,3 16 8 40 21 WNW 1020,0 - 18 0,0
13.06.2018 17:00:00 20,3 15,9 21,2 19,6 18,2 19 10 42 23 WNW 1019,6 9 35 0,0
13.06.2018 16:00:00 20,4 15,6 21,6 - 18,3 21 11 40 22 WNW 1019,8 9 45 0,0
13.06.2018 15:00:00 20,1 15,5 20,1 - 18,3 18 10 41 22 WNW 1020,0 7 16 0,0
13.06.2018 14:00:00 20,0 15,6 20,9 59,5 18,3 18 10 36 20 WNW 1020,0 7 14 0,0
13.06.2018 13:00:00 19,7 16,9 18,2 - 18,3 19 10 31 17 WNW 1020,0 6 14 0,0
13.06.2018 12:00:00 19,1 16,3 20,0 18,9 18,3 16 8 35 19 WNW 1020,0 7 11 0,0
13.06.2018 11:00:00 19,6 17,4 18,9 18,8 18,3 10 6 21 11 WNW 1019,6 7 10 0,0
13.06.2018 10:00:00 18,2 17,0 17,5 58,3 18,2 11 6 22 12 W 1019,4 7 3 0,0
13.06.2018 09:00:00 17,3 16,5 16,9 - 18,3 7 4 11 6 WSW 1019,1 7 0 0,0
13.06.2018 08:00:00 16,8 16,3 16,5 18,9 18,3 4 2 12 7 - 1018,6 7 0 0,2
13.06.2018 07:00:00 16,7 16,2 15,6 19,0 18,3 6 4 38 20 WNW 1017,8 4,0 0 27,3
13.06.2018 06:00:00 17,1 16,3 16,6 - 18,3 13 7 29 16 WNW 1017,4 - 0 1,8
13.06.2018 05:00:00 17,1 16,5 16,6 19,4 18,3 16 8 35 19 WNW 1017,2 - 0 8,5
13.06.2018 04:00:00 17,1 16,6 16,4 19,5 18,3 12 7 29 16 WNW 1017,1 - 0 6,9
13.06.2018 03:00:00 17,0 16,2 16,4 19,5 18,3 14 8 29 16 W 1017,4 - 0 1,0
13.06.2018 02:00:00 17,0 16,2 16,3 59,3 18,3 16 9 34 19 W 1017,5 - 0 0,6
13.06.2018 01:00:00 16,8 16,2 16,3 - 18,3 17 9 37 20 W 1017,3 - 0 2,0
13.06.2018 00:00:00 17,3 16,3 16,8 - 18,3 15 8 30 16 WNW 1017,2 - 0 0,4
12.06.2018 23:00:00 17,2 16,6 16,5 - 18,3 7 4 29 16 WNW 1017,0 - 0 1,6
12.06.2018 22:00:00 16,9 16,4 16,4 - 18,3 7 4 23 12 NW 1016,2 - 0 0,6
12.06.2018 21:00:00 16,9 16,1 16,4 - 18,3 14 7 34 18 WNW 1015,8 - 0 2,1
12.06.2018 20:00:00 16,9 16,1 16,5 - 18,3 14 8 32 17 WNW 1015,1 - 0 3,2
12.06.2018 19:00:00 17,2 16,1 16,7 19,7 18,3 13 7 28 15 WNW 1014,6 - 0 0,4
12.06.2018 18:00:00 17,9 16,2 17,7 19,7 18,3 13 7 35 19 WNW 1014,2 - 0 0,0
12.06.2018 17:00:00 18,3 16,6 17,9 19,6 18,3 17 9 42 23 W 1013,7 5 0 0,0
12.06.2018 16:00:00 19,6 16,4 17,8 56,6 18,3 18 10 43 23 WNW 1012,9 6 0 0,0
12.06.2018 15:00:00 18,5 17,0 17,9 57,9 18,3 23 12 44 24 W 1012,2 4,0 0 0,2
12.06.2018 14:00:00 17,5 16,7 16,8 57,7 18,3 22 12 53 29 W 1011,9 3,0 0 3,2
12.06.2018 13:00:00 17,2 16,4 16,8 19,8 18,3 22 12 47 25 WNW 1011,2 2,0 0 6,3

tt = Température de l'air
td = dewpoint
tt 5cm = Température de l'air 5cm
tt -20cm = Température de l'air -20cm
tt -100cm = Température de l'air -100cm
ff = Vitesse du vent
fx = gusts
dd = Direction du vent
ppp = reduced air pressure
vv = visibility
sd = Ensoleillement
rr = Quantités de précipitations

stations d'obs. à proximité